Notices

What's New in latest Release from April 7th, 2021:

- Updated Glossary, including Speed of Maximum Gust, and Total Hourly Precipitation

- Updated national and regional climate services offices contacts and prices information

- Addition of station inventory lists for 1981-2010, 1971-2000, and 1961-1990 Normals.

If you haven't already, please take our survey and provide feedback about our website: https://eccc.sondage-survey.ca/f/LanguageSelection.aspx?s=442ca660-fcf1-47c0-95a9-59707d6fd709

Hourly Data Report for May 25, 2020

TRENTON A
ONTARIO
Current Station Operator: DND

44°07'00.000" N
77°32'00.000" W
86.30 m
6158875
71621
YTR

Download Data

Hourly Data (May 2020)
Hourly Data Report for May 25, 2020
TIME
LST
Temp Definition
°C
Dew Point Definition
°C
Rel Hum Definition
%
Precip. Amount Definition
mm

Wind Dir Definition
10's deg

Wind Spd Definition
km/h
Visibility Definition
km
Stn Press Definition
kPa
Hmdx Definition


Wind Chill Definition


Weather Definition


00:00 20.3 13.2 64   20 5 24.1 100.51     Thunderstorms
01:00 17.9 13.8 77   18 4 9.7 100.53     Thunderstorms,Rain Showers,Fog
02:00 17.0 14.1 83   18 5 9.7 100.60     Thunderstorms,Rain Showers,Fog
03:00 16.5 13.5 82     0 6.4 100.61     Thunderstorms,Moderate Rain Showers,Fog
04:00 16.3 13.2 82   14 9 11.3 100.55     Rain Showers
05:00 16.1 13.0 82   12 9 24.1 100.62     Mostly Cloudy
06:00 16.4 13.1 81   15 8 24.1 100.67     Mainly Clear
07:00 17.4 13.4 77   15 8 24.1 100.70     Mainly Clear
08:00 18.5 14.0 75   17 8 24.1 100.73     Mostly Cloudy
09:00
10:00 20.9 14.8 68   20 11 24.1 100.75 25   Mostly Cloudy
11:00 21.9 15.4 67   24 11 24.1 100.77 26   Mostly Cloudy
12:00
13:00 22.4 15.9 67   23 15 24.1 100.74 27   Mainly Clear
14:00
15:00 24.2 16.8 63   22 15 24.1 100.68 29   Mainly Clear
16:00 24.0 16.7 64   21 13 24.1 100.65 29   Mainly Clear
17:00 25.5 17.0 59   20 9 24.1 100.61 31   Mainly Clear
18:00 25.7 16.6 57   20 11 24.1 100.61 31   Mainly Clear
19:00 21.6 15.3 67   23 9 24.1 100.62 26   Mainly Clear
20:00 19.6 14.8 74   22 8 24.1 100.67     Mainly Clear
21:00 18.6 14.6 78   24 4 24.1 100.72     Mainly Clear
22:00 19.1 15.0 77   23 4 24.1 100.76     Clear
23:00 18.5 14.6 78   25 5 24.1 100.78     Clear

Notes on Data Quality.

Legend

  • E = Estimated
  • M = Missing
  • NA = Not Available*
  • [empty] = Indicates an unobserved value
Date modified: